Weather History for Medford, OR

Change the Weather History Date:

Monday, May 6, 2013

  Actual Average Record
Temperature  
Mean Temperature 64 °F 57 °F  
Max Temperature 78 °F 71 °F 101 °F (1987)
Min Temperature 50 °F 44 °F 28 °F (1968)
Degree Days  
Heating Degree Days 1 8  
Month to date heating degree days 11 52  
Since 1 July heating degree days 3882 4051  
Cooling Degree Days 0 1  
Month to date cooling degree days 2 5  
Year to date cooling degree days 4 8  
Growing Degree Days 14 (Base 50)    
Moisture  
Dew Point 49 °F    
Average Humidity 62    
Maximum Humidity 90    
Minimum Humidity 33    
Precipitation  
Precipitation 0.13 in 0.04 in 0.73 in (1979)
Month to date precipitation 0.13 0.26  
Year to date precipitation 3.18 7.79  
Snow  
Snow 0.00 in 0.00 in - ()
Month to date snowfall 0.0 0.0  
Since 1 July snowfall 1.7 4.1  
Snow Depth 0.00 in    
Sea Level Pressure  
Sea Level Pressure 29.84 in    
Wind  
Wind Speed 4 mph (WSW)    
Max Wind Speed 24 mph    
Max Gust Speed 28 mph    
Visibility 10 miles    
Events Rain    
T = Trace of Precipitation, MM = Missing Value Source: NWS Daily Summary

Daily Weather History Graph

Daily Weather History Graph

Search for Another Location

Airport:

Trip Planner

Search our weather history database for the weather conditions in past years. The results will help you decide how hot, cold, wet, or windy it might be!

Date:

Astronomy

May. 06, 2013 Rise Set
Actual Time 5:59 AM PDT 8:17 PM PDT
Civil Twilight 5:28 AM PDT 8:48 PM PDT
Nautical Twilight 4:49 AM PDT 9:27 PM PDT
Astronomical Twilight 4:07 AM PDT 10:10 PM PDT
Moon 4:08 AM PDT (5/6) 5:19 PM PDT (5/6)
Length of Visible Light 15h 19m
Length of Day
14h 17m
Waning Crescent, 10% of the Moon is Illuminated
May 6
Waning Crescent
May 9
New
May 17
First Quarter
May 24
Full
May 31
Last Quarter

Hourly Weather History & Observations

Time (PDT) Temp. Dew Point Humidity Pressure Visibility Wind Dir Wind Speed Gust Speed Precip Events Conditions
12:53 AM 60.1 °F 46.0 °F 60% 29.78 in 10.0 mi Calm Calm - N/A   Mostly Cloudy
1:53 AM 55.9 °F 46.0 °F 69% 29.78 in 10.0 mi South 4.6 mph - N/A   Clear
2:53 AM 54.0 °F 46.0 °F 75% 29.79 in 10.0 mi Calm Calm - N/A   Clear
3:53 AM 51.1 °F 45.0 °F 80% 29.81 in 10.0 mi Calm Calm - N/A   Clear
4:53 AM 52.0 °F 45.0 °F 77% 29.83 in 10.0 mi Calm Calm - N/A   Clear
5:53 AM 51.1 °F 45.0 °F 80% 29.85 in 10.0 mi Calm Calm - N/A   Clear
6:53 AM 53.1 °F 46.0 °F 77% 29.87 in 10.0 mi Calm Calm - N/A   Clear
7:53 AM 55.9 °F 46.9 °F 72% 29.88 in 10.0 mi Calm Calm - N/A   Overcast
8:53 AM 57.9 °F 48.0 °F 70% 29.90 in 10.0 mi Calm Calm - N/A   Overcast
9:53 AM 60.1 °F 48.0 °F 64% 29.90 in 10.0 mi Calm Calm - N/A   Mostly Cloudy
10:53 AM 62.1 °F 48.0 °F 60% 29.90 in 10.0 mi Calm Calm - N/A   Overcast
11:53 AM 66.0 °F 48.9 °F 54% 29.88 in 10.0 mi South 6.9 mph - N/A   Scattered Clouds
12:53 PM 68.0 °F 46.9 °F 47% 29.86 in 10.0 mi Calm Calm - N/A   Scattered Clouds
1:53 PM 69.1 °F 46.9 °F 45% 29.83 in 10.0 mi Calm Calm - N/A   Clear
2:53 PM 73.9 °F 46.9 °F 38% 29.80 in 10.0 mi WNW 4.6 mph - N/A   Scattered Clouds
3:53 PM 75.0 °F 46.9 °F 37% 29.78 in 10.0 mi West 8.1 mph - N/A   Scattered Clouds
4:53 PM 77.0 °F 46.9 °F 34% 29.76 in 10.0 mi West 9.2 mph - N/A   Clear
5:53 PM 73.0 °F 48.0 °F 41% 29.78 in 10.0 mi SSE 15.0 mph - 0.00 in Rain Light Rain
6:53 PM 64.0 °F 55.9 °F 75% 29.82 in 10.0 mi SE 19.6 mph 26.5 mph 0.00 in Rain Light Rain
7:53 PM 61.0 °F 57.9 °F 90% 29.83 in 10.0 mi NW 10.4 mph - 0.10 in Rain Light Rain
8:53 PM 61.0 °F 57.0 °F 87% 29.88 in 10.0 mi WNW 5.8 mph - 0.02 in Rain Light Rain
9:53 PM 60.1 °F 55.0 °F 83% 29.91 in 10.0 mi WNW 5.8 mph - 0.00 in Rain Light Rain
10:53 PM 59.0 °F 54.0 °F 83% 29.92 in 10.0 mi West 5.8 mph - 0.01 in   Overcast
11:53 PM 57.9 °F 53.1 °F 84% 29.92 in 10.0 mi Calm Calm - N/A   Mostly Cloudy